[Date Prev][Date Next][Thread Prev][Thread Next] - [Date Index][Thread Index][Author Index]

2 Line ISS Keps 5-28



ISS
1 25544U 98067A   04149.16105031  .00016297  00000-0  14601-3 0  8703
2 25544  51.6321  67.7988 0006160 160.1826 346.6837 15.68473095315174


----
Via the sarex mailing list at AMSAT.ORG courtesy of AMSAT-NA.
To unsubscribe, send "unsubscribe sarex" to Majordomo@amsat.org



AMSAT Top AMSAT Home